Radiation Dose at Monitoring Post of Fukushima Daini Nuclear Power Station
Date,Time,MP-1(microSv/h),MP-2(microSv/h),MP-3(microSv/h),MP-4(microSv/h),MP-5(microSv/h),MP-6(microSv/h),MP-7(microSv/h),Wind Direction,Wind Velocity(m/s),Rain
2020/06/14,00:00,0.173,0.158,0.257,0.245,0.245,0.137,0.084,northwest,2.6,No
2020/06/14,00:10,0.173,0.159,0.257,0.244,0.246,0.137,0.084,northwest,2.5,No
2020/06/14,00:20,0.173,0.158,0.257,0.246,0.245,0.137,0.084,northwest,1.2,No
2020/06/14,00:30,0.174,0.158,0.254,0.246,0.245,0.137,0.084,north,0.6,No
2020/06/14,00:40,0.173,0.158,0.257,0.247,0.245,0.137,0.084,north-northwest,0.8,No
2020/06/14,00:50,0.174,0.159,0.255,0.244,0.245,0.138,0.084,northwest,0.9,No
2020/06/14,01:00,0.172,0.158,0.257,0.246,0.245,0.137,0.084,north-northwest,0.6,No
2020/06/14,01:10,0.173,0.158,0.257,0.245,0.245,0.137,0.083,west-northwest,0.9,No
2020/06/14,01:20,0.172,0.158,0.256,0.246,0.243,0.136,0.085,-,CALM,No
2020/06/14,01:30,0.173,0.157,0.256,0.244,0.245,0.138,0.083,-,CALM,No
2020/06/14,01:40,0.173,0.158,0.255,0.245,0.244,0.137,0.084,-,CALM,No
2020/06/14,01:50,0.173,0.157,0.257,0.245,0.245,0.139,0.084,-,CALM,No
2020/06/14,02:00,0.173,0.158,0.255,0.244,0.245,0.137,0.084,-,CALM,No
2020/06/14,02:10,0.173,0.156,0.257,0.245,0.246,0.138,0.084,-,CALM,No
2020/06/14,02:20,0.173,0.158,0.256,0.243,0.244,0.137,0.083,east,0.6,No
2020/06/14,02:30,0.173,0.158,0.257,0.246,0.245,0.137,0.084,-,CALM,No
2020/06/14,02:40,0.173,0.157,0.256,0.244,0.245,0.137,0.084,-,CALM,No
2020/06/14,02:50,0.173,0.158,0.256,0.246,0.245,0.137,0.084,-,CALM,No
2020/06/14,03:00,0.173,0.158,0.255,0.243,0.245,0.138,0.083,-,CALM,No
2020/06/14,03:10,0.172,0.159,0.257,0.245,0.246,0.137,0.084,south,0.6,No
2020/06/14,03:20,0.172,0.158,0.256,0.246,0.244,0.137,0.083,south-southwest,1.3,No
2020/06/14,03:30,0.174,0.159,0.256,0.244,0.245,0.136,0.083,south-southwest,0.8,No
2020/06/14,03:40,0.172,0.157,0.257,0.246,0.244,0.137,0.083,south,0.6,No
2020/06/14,03:50,0.173,0.158,0.256,0.244,0.246,0.137,0.085,south,0.8,No
2020/06/14,04:00,0.172,0.159,0.256,0.245,0.244,0.138,0.084,south,0.7,No
2020/06/14,04:10,0.173,0.157,0.254,0.244,0.246,0.137,0.084,west-southwest,0.6,No
2020/06/14,04:20,0.173,0.159,0.256,0.245,0.243,0.137,0.084,-,CALM,No
2020/06/14,04:30,0.174,0.157,0.253,0.245,0.246,0.137,0.084,-,CALM,No
2020/06/14,04:40,0.173,0.158,0.257,0.246,0.243,0.137,0.084,north-northwest,0.9,No
2020/06/14,04:50,0.172,0.157,0.255,0.244,0.246,0.137,0.084,north-northwest,0.7,No
2020/06/14,05:00,0.172,0.158,0.256,0.246,0.244,0.137,0.084,-,CALM,No
2020/06/14,05:10,0.172,0.158,0.254,0.245,0.246,0.136,0.083,north,0.7,No
2020/06/14,05:20,0.173,0.157,0.256,0.245,0.244,0.137,0.084,north-northeast,0.7,No
2020/06/14,05:30,0.173,0.157,0.255,0.245,0.246,0.137,0.083,north,1.1,No
2020/06/14,05:40,0.172,0.158,0.256,0.245,0.245,0.137,0.083,northeast,0.6,No
2020/06/14,05:50,0.174,0.157,0.254,0.244,0.246,0.137,0.084,south-southeast,0.6,No
2020/06/14,06:00,0.172,0.159,0.257,0.246,0.244,0.137,0.083,southeast,0.8,No
2020/06/14,06:10,0.174,0.158,0.255,0.243,0.244,0.137,0.084,east-southeast,0.8,No
2020/06/14,06:20,0.172,0.158,0.256,0.247,0.247,0.138,0.084,east-southeast,0.8,No
2020/06/14,06:30,0.174,0.158,0.255,0.243,0.243,0.137,0.085,east-southeast,1.0,No
2020/06/14,06:40,0.173,0.159,0.255,0.247,0.244,0.138,0.084,east-southeast,1.3,No
2020/06/14,06:50,0.174,0.159,0.257,0.244,0.246,0.137,0.085,east-southeast,1.4,No
2020/06/14,07:00,0.174,0.157,0.255,0.244,0.244,0.138,0.084,south-southeast,0.7,No
2020/06/14,07:10,0.173,0.158,0.257,0.245,0.246,0.138,0.084,east-southeast,0.9,No
2020/06/14,07:20,0.175,0.158,0.257,0.243,0.245,0.138,0.084,east,1.2,No
2020/06/14,07:30,0.173,0.159,0.255,0.246,0.245,0.138,0.084,east-southeast,1.9,No
2020/06/14,07:40,0.174,0.160,0.259,0.247,0.246,0.137,0.085,south-southeast,1.1,No
2020/06/14,07:50,0.174,0.158,0.256,0.244,0.246,0.139,0.084,south-southwest,2.1,No
2020/06/14,08:00,0.173,0.160,0.255,0.246,0.244,0.138,0.085,south,2.7,No
2020/06/14,08:10,0.174,0.159,0.258,0.245,0.246,0.137,0.084,south-southeast,1.3,No
2020/06/14,08:20,0.174,0.157,0.256,0.244,0.246,0.138,0.083,south-southeast,2.2,No
2020/06/14,08:30,0.171,0.158,0.254,0.243,0.244,0.138,0.084,southeast,0.9,No
2020/06/14,08:40,0.174,0.158,0.254,0.247,0.242,0.137,0.083,southeast,1.8,No
2020/06/14,08:50,0.174,0.158,0.254,0.246,0.245,0.137,0.084,southeast,2.2,No
2020/06/14,09:00,0.172,0.158,0.255,0.245,0.247,0.138,0.084,southeast,1.8,No
2020/06/14,09:10,0.172,0.158,0.258,0.245,0.245,0.138,0.085,south-southeast,1.7,No
2020/06/14,09:20,0.175,0.158,0.258,0.243,0.245,0.138,0.084,south-southeast,1.9,No
2020/06/14,09:30,0.174,0.160,0.255,0.245,0.244,0.138,0.085,south-southeast,2.1,No
2020/06/14,09:40,0.172,0.158,0.255,0.248,0.249,0.139,0.084,south-southeast,2.6,No
2020/06/14,09:50,0.174,0.157,0.260,0.247,0.247,0.138,0.083,south,3.6,No
2020/06/14,10:00,0.174,0.158,0.260,0.246,0.245,0.138,0.084,south-southeast,4.4,No
2020/06/14,10:10,0.175,0.159,0.258,0.246,0.245,0.138,0.083,south-southeast,4.5,No
2020/06/14,10:20,0.173,0.160,0.256,0.245,0.244,0.139,0.085,south,4.6,No
2020/06/14,10:30,0.172,0.160,0.256,0.246,0.245,0.139,0.084,south,5.5,No
2020/06/14,10:40,0.173,0.159,0.255,0.248,0.248,0.137,0.083,south,7.3,No
2020/06/14,10:50,0.175,0.158,0.258,0.248,0.246,0.137,0.084,south-southeast,8.1,No
2020/06/14,11:00,0.175,0.159,0.260,0.246,0.245,0.137,0.084,south-southeast,9.2,No
2020/06/14,11:10,0.172,0.158,0.258,0.245,0.245,0.138,0.083,south,9.3,No
2020/06/14,11:20,0.172,0.158,0.256,0.246,0.244,0.137,0.084,south,8.6,No
2020/06/14,11:30,0.175,0.158,0.256,0.248,0.247,0.138,0.084,south-southeast,8.1,No
2020/06/14,11:40,0.174,0.159,0.259,0.248,0.246,0.137,0.084,south,9.8,No
2020/06/14,11:50,0.172,0.160,0.259,0.245,0.244,0.138,0.083,south-southeast,9.3,No
2020/06/14,12:00,0.171,0.159,0.258,0.246,0.243,0.137,0.084,south-southeast,11.2,No
2020/06/14,12:10,0.174,0.160,0.257,0.248,0.247,0.136,0.084,south-southeast,11.4,No
2020/06/14,12:20,0.174,0.157,0.256,0.247,0.248,0.138,0.084,south,11.4,No
2020/06/14,12:30,0.173,0.160,0.259,0.246,0.246,0.137,0.084,south-southeast,10.3,No
2020/06/14,12:40,0.172,0.159,0.260,0.245,0.244,0.137,0.082,south,10.3,No
2020/06/14,12:50,0.175,0.159,0.258,0.248,0.243,0.137,0.084,south,11.5,No
2020/06/14,13:00,0.176,0.158,0.255,0.250,0.247,0.138,0.083,south,9.2,No
2020/06/14,13:10,0.173,0.159,0.257,0.246,0.247,0.138,0.084,south,7.5,No
2020/06/14,13:20,0.172,0.159,0.260,0.243,0.246,0.137,0.083,south,6.3,No
2020/06/14,13:30,0.174,0.158,0.259,0.248,0.243,0.137,0.084,south,6.5,No
2020/06/14,13:40,0.173,0.157,0.258,0.249,0.246,0.138,0.084,south,5.5,Yes
2020/06/14,13:50,0.174,0.161,0.257,0.248,0.250,0.139,0.084,south,5.7,Yes
2020/06/14,14:00,0.175,0.162,0.264,0.249,0.248,0.140,0.086,south-southeast,4.7,Yes
2020/06/14,14:10,0.179,0.162,0.261,0.253,0.248,0.142,0.089,south,6.0,Yes
2020/06/14,14:20,0.178,0.164,0.262,0.252,0.253,0.145,0.090,south-southeast,6.1,Yes
2020/06/14,14:30,0.178,0.165,0.265,0.253,0.251,0.144,0.090,south-southeast,7.1,Yes
2020/06/14,14:40,0.182,0.166,0.265,0.256,0.253,0.145,0.092,south-southeast,6.3,Yes
2020/06/14,14:50,0.181,0.168,0.265,0.252,0.256,0.148,0.093,south,6.1,Yes
2020/06/14,15:00,0.182,0.168,0.266,0.256,0.254,0.146,0.094,south,6.3,Yes
2020/06/14,15:10,0.182,0.167,0.264,0.256,0.254,0.147,0.094,south,5.7,Yes
2020/06/14,15:20,0.181,0.167,0.266,0.253,0.254,0.148,0.093,south-southeast,5.8,Yes
2020/06/14,15:30,0.182,0.167,0.264,0.255,0.251,0.146,0.094,south,5.9,Yes
2020/06/14,15:40,0.179,0.166,0.261,0.251,0.253,0.146,0.092,south,6.5,No
2020/06/14,15:50,0.179,0.164,0.263,0.251,0.251,0.144,0.090,south,6.0,No
2020/06/14,16:00,0.179,0.163,0.261,0.251,0.248,0.142,0.090,south-southeast,6.0,Yes
2020/06/14,16:10,0.178,0.165,0.261,0.249,0.253,0.144,0.090,south-southeast,7.0,Yes
2020/06/14,16:20,0.179,0.165,0.262,0.250,0.249,0.143,0.090,south-southeast,7.3,Yes
2020/06/14,16:30,0.178,0.164,0.258,0.251,0.249,0.143,0.089,south-southeast,7.1,Yes
2020/06/14,16:40,0.178,0.163,0.263,0.249,0.251,0.144,0.090,south-southeast,7.0,Yes
2020/06/14,16:50,0.179,0.164,0.260,0.251,0.249,0.143,0.089,south,6.3,Yes
2020/06/14,17:00,0.176,0.163,0.259,0.249,0.250,0.142,0.089,south-southeast,7.7,Yes
2020/06/14,17:10,0.177,0.162,0.261,0.250,0.249,0.142,0.088,south,8.6,Yes
2020/06/14,17:20,0.175,0.162,0.256,0.248,0.246,0.140,0.088,south,7.8,Yes
2020/06/14,17:30,0.176,0.161,0.260,0.248,0.249,0.141,0.089,south,7.8,Yes
2020/06/14,17:40,0.176,0.162,0.257,0.247,0.246,0.141,0.087,south,7.7,Yes
2020/06/14,17:50,0.174,0.160,0.258,0.246,0.247,0.141,0.087,south,7.8,Yes
2020/06/14,18:00,0.175,0.160,0.256,0.247,0.247,0.140,0.087,south,7.1,Yes
2020/06/14,18:10,0.174,0.161,0.255,0.245,0.246,0.138,0.086,south,6.8,Yes
2020/06/14,18:20,0.175,0.160,0.257,0.247,0.250,0.140,0.086,south,6.3,Yes
2020/06/14,18:30,0.176,0.161,0.257,0.246,0.246,0.140,0.087,south,5.5,Yes
2020/06/14,18:40,0.174,0.160,0.256,0.247,0.248,0.140,0.086,south,5.0,Yes
2020/06/14,18:50,0.176,0.161,0.258,0.248,0.249,0.142,0.087,south,5.9,Yes
2020/06/14,19:00,0.175,0.160,0.256,0.245,0.246,0.140,0.087,south,6.4,Yes
2020/06/14,19:10,0.176,0.161,0.259,0.247,0.248,0.140,0.088,south,7.3,Yes
2020/06/14,19:20,0.174,0.160,0.257,0.245,0.246,0.140,0.086,south,7.3,No
2020/06/14,19:30,0.173,0.160,0.257,0.246,0.246,0.138,0.085,south,8.4,No
2020/06/14,19:40,0.174,0.159,0.257,0.246,0.247,0.139,0.085,south,8.2,No
2020/06/14,19:50,0.172,0.157,0.253,0.244,0.244,0.138,0.085,south,7.7,No
2020/06/14,20:00,0.173,0.158,0.256,0.245,0.245,0.137,0.084,south,7.6,No
2020/06/14,20:10,0.173,0.158,0.252,0.243,0.244,0.137,0.084,south,7.5,No
2020/06/14,20:20,0.172,0.157,0.256,0.245,0.245,0.137,0.083,south,7.0,No
2020/06/14,20:30,0.174,0.159,0.254,0.243,0.246,0.138,0.084,south,6.3,No
2020/06/14,20:40,0.172,0.157,0.253,0.244,0.244,0.137,0.084,south,6.7,Yes
2020/06/14,20:50,0.174,0.159,0.256,0.245,0.247,0.138,0.085,south,5.4,Yes
2020/06/14,21:00,0.172,0.158,0.253,0.245,0.244,0.138,0.085,south,5.1,No
2020/06/14,21:10,0.173,0.159,0.256,0.245,0.246,0.137,0.085,south,6.6,No
2020/06/14,21:20,0.174,0.159,0.253,0.244,0.245,0.137,0.084,south,6.0,No
2020/06/14,21:30,0.172,0.159,0.255,0.246,0.243,0.137,0.084,south,6.2,Yes
2020/06/14,21:40,0.173,0.159,0.255,0.244,0.247,0.137,0.085,south,6.1,Yes
2020/06/14,21:50,0.174,0.160,0.255,0.247,0.246,0.140,0.086,south,6.6,Yes
2020/06/14,22:00,0.176,0.162,0.258,0.248,0.248,0.141,0.087,south-southwest,5.3,Yes
2020/06/14,22:10,0.176,0.162,0.256,0.247,0.248,0.142,0.088,south-southwest,5.5,Yes
2020/06/14,22:20,0.176,0.162,0.258,0.249,0.247,0.141,0.087,south-southwest,4.8,No
2020/06/14,22:30,0.177,0.160,0.257,0.246,0.249,0.140,0.087,south-southwest,5.0,No
2020/06/14,22:40,0.173,0.161,0.256,0.246,0.246,0.140,0.087,south-southwest,4.0,Yes
2020/06/14,22:50,0.176,0.160,0.257,0.246,0.246,0.140,0.086,south-southwest,4.4,Yes
2020/06/14,23:00,0.175,0.160,0.255,0.245,0.248,0.138,0.086,south-southwest,4.3,Yes
2020/06/14,23:10,0.173,0.160,0.256,0.246,0.244,0.139,0.085,southwest,4.5,No
2020/06/14,23:20,0.175,0.159,0.253,0.244,0.246,0.138,0.085,south,4.9,No
2020/06/14,23:30,0.172,0.159,0.253,0.245,0.246,0.138,0.085,south-southwest,5.8,No
2020/06/14,23:40,0.173,0.158,0.255,0.244,0.245,0.138,0.084,south-southwest,5.7,No
2020/06/14,23:50,0.173,0.159,0.252,0.244,0.247,0.137,0.084,south-southwest,6.4,No
